ATLAS 5 CENTAUR DEB, 43986

Orbit data source: Space-Track

ATLAS 5 CENTAUR DEB, 43986 is space debris in HEO originally from a launch on Wed, 17 Sep 2014 UTC launched from the Air Force Eastern Test Range (AFETR). Debris objects in space refer to the collection of defunct objects orbiting the Earth. Examples of debris include non-operational satellites, rocket bodies, and fragments generated from explosions, collisions, or faulty payload assembly.

Loading next visibility...
Identifier
43986, 2014-055AR
Orbit
HEO
Country
Flag of USUS
Related business
Flag of USUnited Launch Alliance/Lockheed Martin (US)
Manufacturer
Unknown
Mission
Spacecraft
Bus & Motor
Unknown
Mass
Unknown
Launch date (UTC)
2014-09-17 (12 years ago)
Launch vehicle
Unknown
Launch site
Air Force Eastern Test Range (AFETR)
Object type
Payload
Rocket body
Debris
Shape & HBR
Unknown shape, 1.1 m
Radar Cross Section
RCS unknown

Expand to show TLE details & history
Last TLE update: 8 hours ago

TLE from 8 hours ago
0 ATLAS 5 CENTAUR DEB
1 43986U 14055AR  26121.10735647 -.00000019  00000-0  00000+0 0  9990
2 43986  19.8899 154.1172 4791264 147.5195 254.0784  1.84560134 51246
Epoch: 2026-05-01T02:34Z
TLE epoch observation values (Epoch: 2026-05-01T02:34:35.599Z)
Latitude
Longitude
-103.49934°
Altitude
29,888.843 km
Speed
2.79 km/s
True Right ascension
10h 16m 46s
True Declination
0° 00' 00"
Sunlit
Object was in daylight at epoch
Visualization orbit readout
Latitude
Unknown
Longitude
Unknown
Altitude
Unknown
Speed
Unknown
Apparent Right ascension
Unknown
Apparent Declination
Unknown
Sunlit
N/A
Visualization observer readout
Local Sidereal Time
18:12:16
Azimuth
Unknown
Elevation
Unknown
Doppler factor
Unknown
Orbital elements
Apogee altitude
35,150.256 km
Perigee altitude
8,246.065 km
Semi-major axis
28,076.297 km
Eccentricity
0.47913
Inclination
19.8899°
RAAN
154.1172°
Arg. of periapsis
147.5195°
True anomaly
212.51803°
Mean anomaly
254.0784°
Eccentric anomaly
232.3447°
Mean motion
0.46135 °/min
Orbital period
780.31 mins
BSTAR
0
Loading maneuver chart data...
Computing Atmospheric mass density...

Documentation

Showing up to 5 results
|